This is the latest recevied weather packets stored in our database for station/object JQ3CCU-10. If no packets are shown the sender has not sent any weather packets the latest 10 day(s).
| Time | Temp. | Humidity | Pressure | Rain* | Wind** | Luminosity | Snow |
|---|---|---|---|---|---|---|---|
| 1778165655 | 24.44° C | 65% | - | - | 0 m/s | - | - |
| 1778163855 | 24.44° C | 65% | - | - | 0 m/s | - | - |
| 1778162055 | 25° C | 65% | - | - | 0 m/s | - | - |
| 1778160255 | 25° C | 65% | - | - | 0 m/s | - | - |
| 1778158455 | 25° C | 64% | - | - | 0 m/s | - | - |
| 1778156655 | 25.56° C | 64% | - | - | 0 m/s | - | - |
| 1778154855 | 25.56° C | 63% | - | - | 0 m/s | - | - |
| 1778153055 | 26.11° C | 63% | - | - | 0 m/s | - | - |
| 1778151255 | 26.67° C | 66% | - | - | 0 m/s | - | - |
| 1778149455 | 26.67° C | 66% | - | - | 0 m/s | - | - |
| 1778147655 | 27.78° C | 58% | - | - | 0 m/s | - | - |
| 1778145855 | 28.33° C | 57% | - | - | 0 m/s | - | - |
| 1778144055 | 28.33° C | 57% | - | - | 0 m/s | - | - |
| 1778142255 | 28.33° C | 56% | - | - | 0 m/s | - | - |
| 1778140455 | 28.33° C | 56% | - | - | 0 m/s | - | - |
| 1778138655 | 28.33° C | 56% | - | - | 0 m/s | - | - |
| 1778136855 | 27.78° C | 55% | - | - | 0 m/s | - | - |
| 1778135055 | 27.78° C | 54% | - | - | 0 m/s | - | - |
| 1778133255 | 27.78° C | 55% | - | - | 0 m/s | - | - |
| 1778131455 | 27.78° C | 55% | - | - | 0 m/s | - | - |
| 1778129655 | 27.22° C | 58% | - | - | 0 m/s | - | - |
| 1778127855 | 27.22° C | 55% | - | - | 0 m/s | - | - |
| 1778126055 | 27.22° C | 54% | - | - | 0 m/s | - | - |
| 1778124255 | 27.22° C | 56% | - | - | 0 m/s | - | - |
| 1778122455 | 27.22° C | 53% | - | - | 0 m/s | - | - |
* Rain since midnight (hover to see other rain measurements)
** Current wind speed in m/s (hover to see current wind gust speed)